Selinsgrove, PA

9:20 PM EST on November 14, 2019 (GMT -0500)
Penn Valley

Weather History for KSEG - October, 2019

Change the Weather History Date:

Sunday, October 13, 2019

  Actual Average (WUND) Record (WUND)
Temperature  
Mean Temperature 48 °F -  
Max Temperature 63 °F - - (-1)
Min Temperature 33 °F - - (-1)
Degree Days  
Heating Degree Days 18    
Moisture  
Dew Point 38 °F    
Average Humidity 83    
Maximum Humidity 100    
Minimum Humidity 41    
Precipitation  
Precipitation 0.00 in - - ()
Sea Level Pressure  
Sea Level Pressure 30.09 in    
Wind  
Wind Speed 1 mph (WNW)    
Max Wind Speed 7 mph    
Max Gust Speed -    
Visibility 8 miles    
Events Fog    
Averages and records for this station are not official NWS values.
T = Trace of Precipitation, MM = Missing Value Source: NWS Daily Summary

Daily Weather History Graph

Daily Weather History Graph

Search for Another Location

Airport or City:

Astronomy

Oct. 13, 2019 Rise Set
Actual Time 7:16 AM EDT 6:30 PM EDT
Civil Twilight 6:48 AM EDT 6:57 PM EDT
Nautical Twilight 6:16 AM EDT 7:29 PM EDT
Astronomical Twilight 5:45 AM EDT 8:01 PM EDT
Moon 6:52 PM EDT (10/13) 6:47 AM EDT (10/13)
Length of Visible Light 12h 09m
Length of Day
11h 14m
Full, 100% of the Moon is Illuminated
Oct 13
Full
Oct 13
Full
Oct 21
Last Quarter
Oct 27
New
Nov 4
First Quarter

Hourly Weather History & Observations

Time (EDT) Temp. Windchill Dew Point Humidity Pressure Visibility Wind Dir Wind Speed Gust Speed Precip Events Conditions
12:53 AM 41.0 °F - 39.9 °F 96% 30.10 in 10.0 mi Calm Calm - N/A   Clear
1:53 AM 37.0 °F - 37.0 °F 100% 30.10 in 10.0 mi Calm Calm - N/A   Clear
2:53 AM 37.0 °F - 36.0 °F 96% 30.10 in 10.0 mi Calm Calm - N/A   Clear
3:53 AM 36.0 °F - 35.1 °F 97% 30.10 in 9.0 mi Calm Calm - N/A   Clear
4:53 AM 35.1 °F - 34.0 °F 96% 30.12 in 8.0 mi Calm Calm - N/A   Clear
5:53 AM 34.0 °F - 33.1 °F 96% 30.13 in 10.0 mi Calm Calm - N/A   Partly Cloudy
6:53 AM 33.1 °F 30.0 °F 32.0 °F 96% 30.14 in 10.0 mi NW 3.5 mph - N/A   Clear
7:28 AM 33.1 °F 30.0 °F 33.1 °F 100% 30.13 in 9.0 mi North 3.5 mph - N/A   Scattered Clouds
7:37 AM 34.0 °F 31.0 °F 33.1 °F 96% 30.14 in 10.0 mi NW 3.5 mph - N/A   Mostly Cloudy
7:53 AM 35.1 °F - 34.0 °F 96% 30.14 in 10.0 mi Calm Calm - N/A   Overcast
8:07 AM 36.0 °F - 35.1 °F 97% 30.14 in 1.5 mi Calm Calm - N/A   Overcast
8:15 AM 36.0 °F - 36.0 °F 100% 30.15 in 0.2 mi Calm Calm - N/A Fog Fog
8:53 AM 37.0 °F - 37.0 °F 100% 30.17 in 0.2 mi Calm Calm - N/A Fog Fog
9:53 AM 42.1 °F - 42.1 °F 100% 30.16 in 1.0 mi Calm Calm - N/A   Overcast
9:57 AM 42.1 °F - 42.1 °F 100% 30.15 in 2.0 mi Calm Calm - N/A   Mostly Cloudy
10:04 AM 42.1 °F - 41.0 °F 96% 30.14 in 10.0 mi Calm Calm - N/A   Mostly Cloudy
10:12 AM 43.0 °F - 42.1 °F 97% 30.15 in 10.0 mi Calm Calm - N/A   Scattered Clouds
10:53 AM 50.0 °F - 43.0 °F 77% 30.13 in 10.0 mi Calm Calm - N/A   Clear
11:53 AM 55.9 °F - 39.9 °F 55% 30.12 in 10.0 mi Variable 3.5 mph - N/A   Clear
12:53 PM 55.9 °F - 39.0 °F 53% 30.10 in 10.0 mi Calm Calm - N/A   Clear
1:53 PM 59.0 °F - 37.0 °F 44% 30.07 in 10.0 mi Variable 4.6 mph - N/A   Partly Cloudy
2:53 PM 61.0 °F - 37.0 °F 41% 30.05 in 10.0 mi Variable 5.8 mph - N/A   Clear
3:53 PM 62.1 °F - 39.0 °F 43% 30.03 in 10.0 mi South 4.6 mph - N/A   Mostly Cloudy
4:53 PM 62.1 °F - 37.9 °F 41% 30.01 in 10.0 mi SSE 6.9 mph - N/A   Mostly Cloudy
5:53 PM 62.1 °F - 39.0 °F 43% 30.01 in 10.0 mi South 4.6 mph - N/A   Overcast
6:53 PM 57.0 °F - 42.1 °F 57% 30.01 in 10.0 mi Calm Calm - N/A   Overcast
7:53 PM 50.0 °F - 44.1 °F 80% 30.02 in 10.0 mi NNW 3.5 mph - N/A   Clear
8:53 PM 46.0 °F - 43.0 °F 89% 30.03 in 10.0 mi Calm Calm - N/A   Clear
9:53 PM 44.1 °F - 42.1 °F 93% 30.03 in 10.0 mi Calm Calm - N/A   Clear
10:53 PM 42.1 °F - 39.9 °F 92% 30.02 in 10.0 mi Calm Calm - N/A   Clear
11:53 PM 39.9 °F - 39.0 °F 97% 30.01 in 10.0 mi Calm Calm - N/A   Clear